Auckland, New Zealand

3:30 AM NZDT on September 26, 2016 (GMT +1300)
Auckland

Weather History for 93119 - March, 2013

Change the Weather History Date:

Friday, March 22, 2013

  Actual Average Record
Temperature  
Mean Temperature 63 °F -  
Max Temperature 71 °F - - ()
Min Temperature 55 °F - - ()
Degree Days  
Heating Degree Days 2    
Growing Degree Days 13 (Base 50)    
Moisture  
Dew Point 55 °F    
Average Humidity 76    
Maximum Humidity 94    
Minimum Humidity 50    
Precipitation  
Precipitation 0.00 in - - ()
Sea Level Pressure  
Sea Level Pressure 30.42 in    
Wind  
Wind Speed 4 mph ()    
Max Wind Speed 10 mph    
Max Gust Speed -    
Visibility 6.2 miles    
Events      
T = Trace of Precipitation, MM = Missing Value Source: Averaged Metar Reports

Daily Weather History Graph

Daily Weather History Graph

Search for Another Location

Airport or City:

Trip Planner

Search our weather history database for the weather conditions in past years. The results will help you decide how hot, cold, wet, or windy it might be!

Date:

Astronomy

Mar. 22, 2013 Rise Set
Actual Time 7:25 AM NZDT 7:29 PM NZDT
Civil Twilight 6:59 AM NZDT 7:55 PM NZDT
Nautical Twilight 6:29 AM NZDT 8:25 PM NZDT
Astronomical Twilight 5:58 AM NZDT 8:56 PM NZDT
Moon 4:07 PM NZDT (3/22) 1:56 AM NZDT (3/22)
Length of Visible Light 12h 56m
Length of Day
12h 04m
Waxing Gibbous, 71% of the Moon is Illuminated
Mar 22
Waxing Gibbous
Mar 27
Full
Apr 3
Last Quarter
Apr 10
New
Apr 19
First Quarter

Hourly Weather History & Observations

Time (NZDT) Temp. Dew Point Humidity Pressure Visibility Wind Dir Wind Speed Gust Speed Precip Events Conditions
12:00 AM 57.2 °F 51.8 °F 82% 30.42 in - NE 4.6 mph - N/A   Clear
1:00 AM 57.2 °F 53.6 °F 88% 30.42 in - NNE 3.5 mph - N/A   Clear
2:00 AM 57.2 °F 53.6 °F 88% 30.42 in - ESE 2.3 mph - N/A   Clear
3:00 AM 57.2 °F 53.6 °F 88% 30.42 in - ENE 1.2 mph - N/A   Clear
4:00 AM 57.2 °F 53.6 °F 88% 30.42 in - SE 4.6 mph - N/A   Clear
5:00 AM 55.4 °F 53.6 °F 94% 30.42 in - SE 3.5 mph - N/A   Clear
6:00 AM 55.4 °F 53.6 °F 94% 30.42 in - SE 3.5 mph - N/A   Clear
7:00 AM 55.4 °F 53.6 °F 94% 30.42 in - ENE 1.2 mph - N/A   Clear
8:00 AM 57.2 °F 55.4 °F 94% 30.45 in 6.2 mi ESE 5.8 mph - N/A   Partly Cloudy
9:00 AM 59.0 °F 55.4 °F 88% 30.45 in - NE 3.5 mph - N/A   Clear
10:00 AM 64.4 °F 57.2 °F 77% 30.45 in 6.2 mi ENE 6.9 mph - N/A   Partly Cloudy
11:00 AM 68.0 °F 55.4 °F 64% 30.45 in 6.2 mi ENE 6.9 mph - N/A   Partly Cloudy
12:00 PM 69.8 °F 53.6 °F 56% 30.45 in 6.2 mi NE 8.1 mph - N/A   Partly Cloudy
1:00 PM 71.6 °F 51.8 °F 50% 30.42 in 6.2 mi North 9.2 mph - N/A   Scattered Clouds
2:00 PM 71.6 °F 51.8 °F 50% 30.42 in 6.2 mi North 10.4 mph - N/A   Scattered Clouds
3:00 PM 68.0 °F 53.6 °F 60% 30.39 in 6.2 mi NNE 8.1 mph - N/A   Mostly Cloudy
4:00 PM 69.8 °F 53.6 °F 56% 30.39 in 6.2 mi NNE 6.9 mph - N/A   Mostly Cloudy
5:00 PM 69.8 °F 55.4 °F 60% 30.39 in 6.2 mi North 10.4 mph - N/A   Mostly Cloudy
6:00 PM 66.2 °F 55.4 °F 68% 30.39 in 6.2 mi NNE 6.9 mph - N/A   Scattered Clouds
7:00 PM 66.2 °F 57.2 °F 73% 30.39 in 6.2 mi NNE 4.6 mph - N/A   Scattered Clouds
8:00 PM 64.4 °F 55.4 °F 73% 30.39 in 6.2 mi NNW 3.5 mph - N/A   Scattered Clouds
9:00 PM 62.6 °F 57.2 °F 82% 30.42 in 6.2 mi NW 5.8 mph - N/A   Scattered Clouds
10:00 PM 62.6 °F 57.2 °F 82% 30.42 in 6.2 mi NW 5.8 mph - N/A   Scattered Clouds
11:00 PM 62.6 °F 57.2 °F 82% 30.42 in 6.2 mi NW 5.8 mph - N/A   Scattered Clouds